Location: Newark
(55.7083°N, 13.1992°E)
Time: 12:12:16
(UTC+00:00)

Altair - All Passes

Search period start: 21 February 2020 00:00
Search period end: 02 March 2020 00:00
Orbit: 1502 x 1682 km, 47.2° (Epoch: 20 February)

Date Brightness Start Highest point End Pass type
(mag) Time Alt. Az. Time Alt. Az. Time Alt. Az.
21 Feb - 00:42:44 10° SSW 00:51:02 36° SSE 00:59:37 10° E visible
21 Feb - 02:45:15 10° WSW 02:54:27 52° S 03:03:59 10° ESE visible
21 Feb - 04:49:01 10° W 04:58:11 47° SSW 05:07:36 10° SE visible
21 Feb - 06:53:39 10° W 07:01:17 26° SW 07:09:02 10° S daylight
21 Feb - 22:20:10 10° SSE 22:23:47 13° SE 22:27:27 10° ESE visible
22 Feb - 00:17:50 10° SSW 00:25:59 34° SSE 00:34:25 10° E visible
22 Feb - 02:20:11 10° WSW 02:29:20 52° S 02:38:49 10° E visible
22 Feb - 04:23:54 10° W 04:33:04 48° SSW 04:42:31 10° SE visible
22 Feb - 06:28:25 10° W 06:36:14 28° SW 06:44:12 10° SSE daylight
22 Feb - 21:56:18 10° SE 21:58:51 11° SE 22:01:25 10° ESE night (unlit)
22 Feb - 23:52:57 10° SSW 00:00:56 32° SE 00:09:11 10° E visible
23 Feb - 01:55:08 10° WSW 02:04:13 51° S 02:13:39 10° E visible
23 Feb - 03:58:47 10° W 04:07:57 49° SSW 04:17:25 10° SE visible
23 Feb - 06:03:12 10° W 06:11:11 29° SW 06:19:20 10° SSE daylight
23 Feb - 23:28:05 10° SSW 23:35:54 31° SE 23:43:57 10° E visible
24 Feb - 01:30:05 10° WSW 01:39:06 50° SSE 01:48:29 10° E visible
24 Feb - 03:33:40 10° W 03:42:50 50° SSW 03:52:19 10° ESE visible
24 Feb - 05:38:00 10° W 05:46:08 31° SW 05:54:26 10° SSE visible
24 Feb - 07:47:05 10° WSW 07:48:16 10° WSW 07:49:26 10° SW daylight
24 Feb - 23:03:16 10° SSW 23:10:52 29° SE 23:18:43 10° E visible
25 Feb - 01:05:02 10° WSW 01:14:00 49° SSE 01:23:18 10° E visible
25 Feb - 03:08:34 10° W 03:17:43 50° S 03:27:12 10° ESE visible
25 Feb - 05:12:49 10° W 05:21:04 32° SW 05:29:31 10° SSE visible
25 Feb - 07:20:25 10° WSW 07:23:18 12° SW 07:26:12 10° SW daylight
25 Feb - 22:38:27 10° SSW 22:45:51 27° SE 22:53:28 10° E visible
26 Feb - 00:40:01 10° SW 00:48:54 48° SSE 00:58:09 10° E visible
26 Feb - 02:43:28 10° W 02:52:36 51° S 03:02:05 10° ESE visible
26 Feb - 04:47:39 10° W 04:56:01 34° SSW 05:04:35 10° SSE visible
26 Feb - 06:54:30 10° WSW 06:58:20 13° SW 07:02:13 10° SSW daylight
26 Feb - 22:13:41 10° S 22:20:51 26° SE 22:28:12 10° E visible
27 Feb - 00:15:00 10° SW 00:23:49 47° SSE 00:32:58 10° E visible
27 Feb - 02:18:22 10° W 02:27:30 52° S 02:36:57 10° ESE visible
27 Feb - 04:22:29 10° W 04:30:56 35° SSW 04:39:37 10° SSE visible
27 Feb - 06:28:49 10° W 06:33:22 14° SW 06:37:58 10° SSW daylight
27 Feb - 21:48:56 10° S 21:55:50 24° SE 22:02:55 10° E night (unlit)
27 Feb - 23:49:59 10° SW 23:58:44 45° SSE 00:07:48 10° E visible
28 Feb - 01:53:16 10° WSW 02:02:23 52° S 02:11:50 10° ESE visible
28 Feb - 03:57:20 10° W 04:05:51 37° SSW 04:14:39 10° SSE visible
28 Feb - 06:03:16 10° W 06:08:23 16° SW 06:13:34 10° SSW daylight
28 Feb - 21:24:14 10° S 21:30:51 22° SE 21:37:37 10° E night (unlit)
28 Feb - 23:25:00 10° SW 23:33:39 44° SSE 23:42:37 10° E visible
29 Feb - 01:28:11 10° WSW 01:37:15 52° S 01:46:42 10° ESE visible
29 Feb - 03:32:12 10° W 03:40:47 38° SSW 03:49:39 10° SE visible
29 Feb - 05:37:48 10° W 05:43:24 17° SW 05:49:04 10° SSW daylight
29 Feb - 20:59:33 10° S 21:05:52 21° SE 21:12:17 10° E night (unlit)
29 Feb - 23:00:01 10° SW 23:08:34 42° SSE 23:17:26 10° E visible
01 Mar - 01:03:06 10° WSW 01:12:08 52° S 01:21:33 10° ESE visible
01 Mar - 03:07:03 10° W 03:15:42 40° SSW 03:24:38 10° SE visible
01 Mar - 05:12:24 10° W 05:18:23 18° SW 05:24:30 10° S visible
01 Mar - 20:34:56 10° S 20:40:53 19° SE 20:46:56 10° E night (unlit)
01 Mar - 22:35:02 10° SW 22:43:30 41° SSE 22:52:16 10° E visible
